| time (UTC) | temp C | wind direction | speed KPH | gust KPH | rain 1hr cm | rain 24hr cm | rain mn cm | humidity % | barometer mb |
| 20260504110346 | 7 | 236 | 3.2 | 9.7 | 0.00 | 0.00 | 0.00 | 69 | 1010.6 |
| 20260504100303 | 7 | 148 | 1.6 | 8.0 | 0.00 | 0.00 | 0.00 | 70 | 1010.8 |
| 20260504081657 | 6 | 209 | 0.0 | 3.2 | 0.00 | 0.00 | 0.00 | 71 | 1011.7 |
| 20260504081153 | 6 | 288 | 3.2 | 4.8 | 0.00 | 0.00 | 0.00 | 70 | 1011.8 |
| 20260504080649 | 6 | 215 | 0.0 | 4.8 | 0.00 | 0.00 | 0.00 | 70 | 1011.8 |
| 20260504080146 | 6 | 192 | 0.0 | 6.4 | 0.00 | 0.00 | 0.00 | 70 | 1011.7 |
| 20260504070114 | 7 | 249 | 1.6 | 8.0 | 0.00 | 0.00 | 0.00 | 68 | 1012.4 |
| 20260504050502 | 8 | 187 | 3.2 | 6.4 | 0.00 | 0.00 | 0.00 | 60 | 1013.0 |
| 20260504045959 | 8 | 233 | 3.2 | 11.3 | 0.00 | 0.00 | 0.00 | 59 | 1013.1 |
| 20260504045455 | 8 | 180 | 4.8 | 12.9 | 0.00 | 0.00 | 0.00 | 60 | 1013.0 |
| 20260504044951 | 7 | 215 | 4.8 | 19.3 | 0.00 | 0.00 | 0.00 | 62 | 1013.3 |
| 20260504044449 | 7 | 281 | 4.8 | 6.4 | 0.00 | 0.00 | 0.00 | 63 | 1013.2 |
| 20260504043946 | 7 | 209 | 0.0 | 4.8 | 0.00 | 0.00 | 0.00 | 61 | 1013.0 |
| 20260504043443 | 7 | 225 | 3.2 | 4.8 | 0.00 | 0.00 | 0.00 | 62 | 1013.3 |
| 20260504042941 | 8 | 217 | 0.0 | 11.3 | 0.00 | 0.00 | 0.00 | 61 | 1013.1 |
| 20260504042437 | 8 | 286 | 0.0 | 4.8 | 0.00 | 0.00 | 0.00 | 61 | 1013.0 |
| 20260504041934 | 8 | 187 | 0.0 | 3.2 | 0.00 | 0.00 | 0.00 | 61 | 1013.4 |
| 20260504041430 | 8 | 189 | 6.4 | 8.0 | 0.00 | 0.00 | 0.00 | 61 | 1013.0 |
| 20260504040926 | 8 | 195 | 0.0 | 8.0 | 0.00 | 0.00 | 0.00 | 61 | 1013.2 |
| 20260504040424 | 8 | 221 | 3.2 | 8.0 | 0.00 | 0.00 | 0.00 | 61 | 1013.3 |
| 20260504035919 | 8 | 219 | 6.4 | 11.3 | 0.00 | 0.00 | 0.00 | 61 | 1013.2 |
| 20260504035417 | 8 | 172 | 0.0 | 4.8 | 0.00 | 0.00 | 0.00 | 62 | 1013.2 |
| 20260504034914 | 8 | 219 | 4.8 | 4.8 | 0.00 | 0.00 | 0.00 | 62 | 1013.4 |
| 20260504034411 | 8 | 233 | 4.8 | 9.7 | 0.00 | 0.00 | 0.00 | 61 | 1013.4 |
| 20260504033908 | 8 | 215 | 9.7 | 9.7 | 0.00 | 0.00 | 0.00 | 60 | 1013.4 |
| 20260504033406 | 8 | 219 | 4.8 | 6.4 | 0.00 | 0.00 | 0.00 | 59 | 1013.2 |
| 20260504032903 | 8 | 243 | 0.0 | 8.0 | 0.00 | 0.00 | 0.00 | 60 | 1013.2 |
| 20260504032359 | 8 | 198 | 4.8 | 8.0 | 0.00 | 0.00 | 0.00 | 60 | 1013.3 |
| 20260504031856 | 8 | 233 | 12.9 | 12.9 | 0.00 | 0.00 | 0.00 | 59 | 1013.4 |
| 20260504031353 | 8 | 270 | 8.0 | 8.0 | 0.00 | 0.00 | 0.00 | 59 | 1013.2 |
| 20260504030849 | 8 | 216 | 4.8 | 4.8 | 0.00 | 0.00 | 0.00 | 60 | 1013.3 |
| 20260504030347 | 8 | 180 | 0.0 | 6.4 | 0.00 | 0.00 | 0.00 | 60 | 1013.3 |
| 20260504025843 | 8 | 249 | 0.0 | 8.0 | 0.00 | 0.00 | 0.00 | 59 | 1013.5 |
| 20260504025340 | 8 | 240 | 3.2 | 8.0 | 0.00 | 0.00 | 0.00 | 59 | 1013.5 |
| 20260504024837 | 8 | 180 | 0.0 | 8.0 | 0.00 | 0.00 | 0.00 | 60 | 1013.4 |
| 20260504024333 | 8 | 260 | 4.8 | 4.8 | 0.00 | 0.00 | 0.00 | 59 | 1013.5 |
| 20260504023830 | 9 | 233 | 8.0 | 8.0 | 0.00 | 0.00 | 0.00 | 57 | 1013.7 |
| 20260504023327 | 9 | 225 | 3.2 | 11.3 | 0.00 | 0.00 | 0.00 | 57 | 1013.1 |
| 20260504022822 | 9 | 301 | 3.2 | 4.8 | 0.00 | 0.00 | 0.00 | 58 | 1013.7 |
| 20260504022320 | 9 | 312 | 3.2 | 8.0 | 0.00 | 0.00 | 0.00 | 58 | 1013.5 |
| 20260504021816 | 9 | 332 | 3.2 | 8.0 | 0.00 | 0.00 | 0.00 | 57 | 1013.7 |
| 20260504021314 | 9 | 241 | 0.0 | 8.0 | 0.00 | 0.00 | 0.00 | 57 | 1013.4 |
| 20260504020811 | 9 | 213 | 3.2 | 11.3 | 0.00 | 0.00 | 0.00 | 57 | 1013.5 |
| 20260504020307 | 8 | 172 | 3.2 | 6.4 | 0.00 | 0.00 | 0.00 | 58 | 1013.5 |
| 20260504015803 | 8 | 151 | 1.6 | 1.6 | 0.00 | 0.00 | 0.00 | 58 | 1013.3 |
| 20260504015300 | 9 | 212 | 0.0 | 3.2 | 0.00 | 0.00 | 0.00 | 57 | 1013.2 |
| 20260504014755 | 9 | 279 | 3.2 | 3.2 | 0.00 | 0.00 | 0.00 | 58 | 1013.3 |
| 20260504014252 | 10 | 180 | 3.2 | 4.8 | 0.00 | 0.00 | 0.00 | 56 | 1013.5 |
| 20260504013750 | 10 | 183 | 4.8 | 9.7 | 0.00 | 0.00 | 0.00 | 54 | 1013.2 |
| 20260504013247 | 10 | 248 | 4.8 | 9.7 | 0.00 | 0.00 | 0.00 | 55 | 1013.4 |
| 20260504012743 | 10 | 257 | 3.2 | 6.4 | 0.00 | 0.00 | 0.00 | 56 | 1013.2 |
| 20260504012242 | 10 | 257 | 1.6 | 4.8 | 0.00 | 0.00 | 0.00 | 55 | 1013.2 |
| 20260504011738 | 10 | 239 | 3.2 | 12.9 | 0.00 | 0.00 | 0.00 | 54 | 1013.1 |
| 20260504011235 | 10 | 243 | 3.2 | 6.4 | 0.00 | 0.00 | 0.00 | 54 | 1013.2 |
| 20260504010731 | 10 | 229 | 0.0 | 3.2 | 0.00 | 0.00 | 0.00 | 55 | 1013.4 |
| 20260504010227 | 10 | 206 | 0.0 | 3.2 | 0.00 | 0.00 | 0.00 | 53 | 1013.3 |
| 20260504005724 | 10 | 213 | 6.4 | 9.7 | 0.00 | 0.00 | 0.00 | 52 | 1013.3 |
| 20260504005221 | 10 | 312 | 0.0 | 6.4 | 0.00 | 0.00 | 0.00 | 53 | 1013.3 |
| 20260504004718 | 10 | 233 | 4.8 | 9.7 | 0.00 | 0.00 | 0.00 | 52 | 1013.2 |
| 20260504004215 | 10 | 263 | 1.6 | 9.7 | 0.00 | 0.00 | 0.00 | 51 | 1013.2 |
| 20260504003712 | 10 | 213 | 0.0 | 6.4 | 0.00 | 0.00 | 0.00 | 52 | 1013.0 |
| 20260504003209 | 11 | 245 | 4.8 | 9.7 | 0.00 | 0.00 | 0.00 | 51 | 1013.2 |
| 20260504002705 | 11 | 270 | 3.2 | 17.7 | 0.00 | 0.00 | 0.00 | 50 | 1013.3 |
| 20260504002203 | 11 | 206 | 6.4 | 12.9 | 0.00 | 0.00 | 0.00 | 50 | 1013.2 |
| 20260504001701 | 11 | 226 | 8.0 | 8.0 | 0.00 | 0.00 | 0.00 | 50 | 1013.0 |
| 20260504001156 | 11 | 210 | 11.3 | 14.5 | 0.00 | 0.00 | 0.00 | 49 | 1013.0 |
| 20260504000648 | 11 | 233 | 4.8 | 12.9 | 0.00 | 0.00 | 0.00 | 48 | 1012.9 |
| 20260504000145 | 11 | 215 | 9.7 | 12.9 | 0.00 | 0.00 | 0.00 | 48 | 1012.9 |
| 20260503235643 | 11 | 228 | 3.2 | 9.7 | 0.00 | 0.00 | 0.00 | 49 | 1012.9 |
| 20260503235140 | 11 | 183 | 6.4 | 9.7 | 0.00 | 0.00 | 0.00 | 48 | 1013.1 |
| 20260503234638 | 12 | 168 | 3.2 | 24.1 | 0.00 | 0.00 | 0.00 | 47 | 1013.0 |
| 20260503234136 | 11 | 188 | 8.0 | 17.7 | 0.00 | 0.00 | 0.00 | 48 | 1013.1 |
| 20260503233632 | 12 | 225 | 3.2 | 14.5 | 0.00 | 0.00 | 0.00 | 48 | 1013.1 |
| 20260503233128 | 12 | 287 | 4.8 | 16.1 | 0.00 | 0.00 | 0.00 | 48 | 1013.0 |
| 20260503232625 | 12 | 322 | 4.8 | 14.5 | 0.00 | 0.00 | 0.00 | 47 | 1013.0 |
| 20260503232123 | 12 | 270 | 11.3 | 11.3 | 0.00 | 0.00 | 0.00 | 47 | 1013.0 |
| 20260503231620 | 12 | 322 | 3.2 | 17.7 | 0.00 | 0.00 | 0.00 | 46 | 1013.2 |
| 20260503231117 | 12 | 228 | 8.0 | 17.7 | 0.00 | 0.00 | 0.00 | 47 | 1012.9 |
| 20260503230614 | 12 | 251 | 4.8 | 12.9 | 0.00 | 0.00 | 0.00 | 47 | 1013.0 |
| 20260503230111 | 12 | 307 | 4.8 | 20.9 | 0.00 | 0.00 | 0.00 | 47 | 1013.0 |
| 20260503225608 | 12 | 231 | 9.7 | 19.3 | 0.00 | 0.00 | 0.00 | 46 | 1012.9 |
| 20260503225102 | 12 | 221 | 16.1 | 25.7 | 0.00 | 0.00 | 0.00 | 45 | 1013.0 |
| 20260503224600 | 12 | 217 | 20.9 | 24.1 | 0.00 | 0.00 | 0.00 | 45 | 1013.1 |
| 20260503224058 | 12 | 226 | 6.4 | 8.0 | 0.00 | 0.00 | 0.00 | 46 | 1013.2 |
| 20260503223555 | 12 | 250 | 8.0 | 20.9 | 0.00 | 0.00 | 0.00 | 45 | 1013.0 |
| 20260503223050 | 12 | 214 | 8.0 | 29.0 | 0.00 | 0.00 | 0.00 | 45 | 1012.9 |
| 20260503222549 | 12 | 237 | 8.0 | 17.7 | 0.00 | 0.00 | 0.00 | 45 | 1013.0 |
| 20260503222047 | 12 | 235 | 19.3 | 20.9 | 0.00 | 0.00 | 0.00 | 45 | 1013.0 |
| 20260503221544 | 12 | 270 | 8.0 | 11.3 | 0.00 | 0.00 | 0.00 | 46 | 1012.9 |
| 20260503221042 | 12 | 319 | 3.2 | 19.3 | 0.00 | 0.00 | 0.00 | 45 | 1012.7 |
| 20260503220538 | 13 | 281 | 4.8 | 16.1 | 0.00 | 0.00 | 0.00 | 45 | 1013.1 |
| 20260503220035 | 12 | 305 | 3.2 | 19.3 | 0.00 | 0.00 | 0.00 | 46 | 1013.1 |
| 20260503215532 | 12 | 194 | 11.3 | 27.4 | 0.00 | 0.00 | 0.00 | 44 | 1013.0 |
| 20260503215029 | 13 | 217 | 0.0 | 17.7 | 0.00 | 0.00 | 0.00 | 44 | 1013.0 |
| 20260503214527 | 13 | 285 | 22.5 | 22.5 | 0.00 | 0.00 | 0.00 | 43 | 1012.9 |
| 20260503214023 | 12 | 162 | 1.6 | 12.9 | 0.00 | 0.00 | 0.00 | 47 | 1013.0 |
| 20260503213522 | 12 | 212 | 8.0 | 27.4 | 0.00 | 0.00 | 0.00 | 45 | 1012.9 |
| 20260503213018 | 13 | 213 | 16.1 | 22.5 | 0.00 | 0.00 | 0.00 | 43 | 1012.8 |
| 20260503212516 | 14 | 249 | 0.0 | 12.9 | 0.00 | 0.00 | 0.00 | 44 | 1013.0 |
| 20260503212013 | 13 | 239 | 9.7 | 27.4 | 0.00 | 0.00 | 0.00 | 44 | 1013.0 |
| 20260503211510 | 14 | 185 | 1.6 | 16.1 | 0.00 | 0.00 | 0.00 | 43 | 1013.2 |
| 20260503211010 | 13 | 229 | 4.8 | 14.5 | 0.00 | 0.00 | 0.00 | 45 | 1013.0 |
| 20260503210508 | 12 | 205 | 8.0 | 17.7 | 0.00 | 0.00 | 0.00 | 46 | 1013.0 |
| 20260503210005 | 13 | 294 | 3.2 | 11.3 | 0.00 | 0.00 | 0.00 | 46 | 1012.9 |
| 20260503205501 | 13 | 216 | 3.2 | 11.3 | 0.00 | 0.00 | 0.00 | 43 | 1013.0 |
| 20260503204956 | 13 | 246 | 4.8 | 14.5 | 0.00 | 0.00 | 0.00 | 45 | 1013.0 |
| 20260503204454 | 13 | 263 | 1.6 | 16.1 | 0.00 | 0.00 | 0.00 | 43 | 1013.0 |
| 20260503203950 | 13 | 319 | 8.0 | 14.5 | 0.00 | 0.00 | 0.00 | 43 | 1013.1 |
| 20260503203448 | 13 | 255 | 6.4 | 16.1 | 0.00 | 0.00 | 0.00 | 44 | 1013.1 |
| 20260503202945 | 13 | 222 | 14.5 | 17.7 | 0.00 | 0.00 | 0.00 | 45 | 1013.0 |
| 20260503202443 | 13 | 235 | 12.9 | 22.5 | 0.00 | 0.00 | 0.00 | 44 | 1013.2 |
| 20260503201941 | 12 | 234 | 14.5 | 19.3 | 0.00 | 0.00 | 0.00 | 45 | 1013.5 |
| 20260503201438 | 12 | 265 | 11.3 | 27.4 | 0.00 | 0.00 | 0.00 | 45 | 1013.7 |
| 20260503200935 | 13 | 248 | 4.8 | 27.4 | 0.00 | 0.00 | 0.00 | 43 | 1013.4 |
| 20260503200432 | 13 | 178 | 6.4 | 30.6 | 0.00 | 0.00 | 0.00 | 44 | 1013.5 |
| 20260503195928 | 13 | 225 | 6.4 | 20.9 | 0.00 | 0.00 | 0.00 | 46 | 1013.7 |
| 20260503195426 | 12 | 209 | 8.0 | 16.1 | 0.00 | 0.00 | 0.00 | 47 | 1013.7 |
| 20260503194922 | 12 | 262 | 9.7 | 17.7 | 0.00 | 0.00 | 0.00 | 45 | 1013.8 |
| 20260503194419 | 12 | 283 | 4.8 | 20.9 | 0.00 | 0.00 | 0.00 | 46 | 1013.8 |
| 20260503193914 | 12 | 257 | 16.1 | 30.6 | 0.00 | 0.00 | 0.00 | 47 | 1013.9 |
| 20260503193409 | 12 | 251 | 4.8 | 22.5 | 0.00 | 0.00 | 0.00 | 44 | 1014.0 |
| 20260503192905 | 13 | 214 | 6.4 | 8.0 | 0.00 | 0.00 | 0.00 | 47 | 1014.0 |
| 20260503192401 | 12 | 202 | 6.4 | 17.7 | 0.00 | 0.00 | 0.00 | 45 | 1014.1 |
| 20260503191858 | 12 | 172 | 6.4 | 17.7 | 0.00 | 0.00 | 0.00 | 45 | 1014.4 |
| 20260503191355 | 12 | 270 | 0.0 | 14.5 | 0.00 | 0.00 | 0.00 | 46 | 1014.4 |
| 20260503190852 | 12 | 268 | 8.0 | 17.7 | 0.00 | 0.00 | 0.00 | 44 | 1014.3 |
| 20260503190349 | 13 | 276 | 8.0 | 17.7 | 0.00 | 0.00 | 0.00 | 45 | 1014.4 |
| 20260503185846 | 12 | 233 | 20.9 | 32.2 | 0.00 | 0.00 | 0.00 | 44 | 1014.2 |
| 20260503185343 | 12 | 255 | 11.3 | 20.9 | 0.00 | 0.00 | 0.00 | 44 | 1014.4 |
| 20260503184842 | 12 | 291 | 1.6 | 14.5 | 0.00 | 0.00 | 0.00 | 47 | 1014.5 |
| 20260503184339 | 12 | 172 | 3.2 | 17.7 | 0.00 | 0.00 | 0.00 | 47 | 1014.6 |
| 20260503183835 | 12 | 270 | 0.0 | 16.1 | 0.00 | 0.00 | 0.00 | 47 | 1014.7 |
| 20260503183332 | 13 | 245 | 8.0 | 12.9 | 0.00 | 0.00 | 0.00 | 45 | 1014.6 |
| 20260503182829 | 13 | 251 | 8.0 | 12.9 | 0.00 | 0.00 | 0.00 | 45 | 1014.8 |
| 20260503182328 | 12 | 220 | 4.8 | 14.5 | 0.00 | 0.00 | 0.00 | 46 | 1014.8 |
| 20260503181825 | 11 | 194 | 12.9 | 24.1 | 0.00 | 0.00 | 0.00 | 45 | 1014.6 |
| 20260503181322 | 12 | 225 | 6.4 | 17.7 | 0.00 | 0.00 | 0.00 | 43 | 1015.0 |
| 20260503180818 | 13 | 217 | 6.4 | 16.1 | 0.00 | 0.00 | 0.00 | 47 | 1015.0 |
| 20260503180317 | 12 | 251 | 4.8 | 12.9 | 0.00 | 0.00 | 0.00 | 47 | 1015.0 |
| 20260503175813 | 11 | 311 | 4.8 | 24.1 | 0.00 | 0.00 | 0.00 | 47 | 1015.2 |
| 20260503175311 | 12 | 247 | 8.0 | 22.5 | 0.00 | 0.00 | 0.00 | 46 | 1015.0 |
| 20260503174806 | 11 | 266 | 17.7 | 30.6 | 0.00 | 0.00 | 0.00 | 47 | 1015.0 |
| 20260503174304 | 11 | 197 | 17.7 | 17.7 | 0.00 | 0.00 | 0.00 | 47 | 1015.1 |
| 20260503173800 | 11 | 287 | 6.4 | 20.9 | 0.00 | 0.00 | 0.00 | 49 | 1015.2 |
| 20260503173255 | 11 | 193 | 9.7 | 16.1 | 0.00 | 0.00 | 0.00 | 46 | 1015.3 |
| 20260503172753 | 11 | 180 | 3.2 | 12.9 | 0.00 | 0.00 | 0.00 | 49 | 1015.1 |
| 20260503172250 | 10 | 227 | 17.7 | 33.8 | 0.00 | 0.00 | 0.00 | 46 | 1015.3 |
| 20260503171746 | 11 | 305 | 6.4 | 30.6 | 0.00 | 0.00 | 0.00 | 47 | 1015.3 |
| 20260503171244 | 11 | 240 | 8.0 | 20.9 | 0.00 | 0.00 | 0.00 | 45 | 1015.3 |
| 20260503170740 | 11 | 203 | 9.7 | 17.7 | 0.00 | 0.00 | 0.00 | 49 | 1015.2 |
| 20260503170237 | 11 | 253 | 8.0 | 11.3 | 0.00 | 0.00 | 0.00 | 47 | 1015.3 |
| 20260503160159 | 10 | 301 | 3.2 | 14.5 | 0.00 | 0.00 | 0.00 | 46 | 1016.0 |
| 20260503150629 | 7 | 207 | 6.4 | 22.5 | 0.00 | 0.00 | 0.00 | 47 | 1016.0 |
| 20260503150125 | 8 | 270 | 4.8 | 16.1 | 0.00 | 0.00 | 0.00 | 48 | 1016.4 |
| 20260503131019 | 5 | 253 | 8.0 | 11.3 | 0.00 | 0.00 | 0.00 | 70 | 1016.6 |
| 20260503130517 | 5 | 332 | 3.2 | 8.0 | 0.00 | 0.00 | 0.00 | 71 | 1016.4 |